Terminal Aerodrome Forecast
Issued by NWS Aberdeen, SD

Current Version | Previous Version | Text Only | Print | Product List | Glossary On
Versions: 1 2 3 4 5 6 7 8 9 10 11 12 13 14 15 16 17 18 19 20 21 22 23 24 25 26 27 28 29 30 31 32 33 34 35 36 37 38 39 40 41 42 43 44 45 46 47 48 49 50
897
FTUS43 KABR 270534
TAFABR
TAF
KABR 270534Z 2706/2806 16008KT P6SM VCSH FEW120
     FM272000 04009KT P6SM -SHRA BKN140
     FM280200 VRB05KT P6SM BKN080=

USA.gov is the U.S. government's official web portal to all federal, state and local government web resources and services.